• In Deutschland
  • Länderverzeichnis
  • Für 7 Tage
  • Wassertemperatur
  • Satellitenkarten
  • Wetterkarte
  • Widgets
  • user-avatar
    Anmelden

    Stündliche Wetter Zarucheve

    Heute, 14 August, Dienstag

    Zeit Temperatur Niederschläge Wind Luftdruck Luftfeuchtigkeit
    00:00 +13°C° 0 mm 2 m/S 753 mmHg 90%
    01:00 +13°C° 0 mm 2 m/S 754 mmHg 91%
    02:00 +12°C° 0 mm 2 m/S 754 mmHg 92%
    03:00 +12°C° 0 mm 2 m/S 754 mmHg 93%
    04:00 +12°C° 0 mm 2 m/S 754 mmHg 93%
    05:00 +10°C° 0 mm 2 m/S 755 mmHg 94%
    06:00 +13°C° 0 mm 1 m/S 755 mmHg 86%
    07:00 +15°C° 0 mm 1 m/S 755 mmHg 78%
    08:00 +18°C° 0 mm 1 m/S 755 mmHg 70%
    09:00 +20°C° 0 mm 1 m/S 755 mmHg 64%
    10:00 +21°C° 0 mm 1 m/S 755 mmHg 58%
    11:00 +22°C° 0 mm 1 m/S 755 mmHg 52%
    12:00 +23°C° 0 mm 1 m/S 755 mmHg 51%
    13:00 +23°C° 0 mm 1 m/S 754 mmHg 49%
    14:00 +24°C° 0 mm 1 m/S 754 mmHg 47%
    15:00 +24°C° 0 mm 1 m/S 754 mmHg 49%
    16:00 +24°C° 0 mm 1 m/S 754 mmHg 52%
    17:00 +24°C° 0 mm 1 m/S 754 mmHg 54%
    18:00 +22°C° 0,1 mm 1 m/S 753 mmHg 61%
    19:00 +19°C° 0,1 mm 2 m/S 753 mmHg 67%
    20:00 +18°C° 0,1 mm 2 m/S 753 mmHg 74%
    21:00 +17°C° 0,7 mm 2 m/S 753 mmHg 80%
    22:00 +16°C° 0,7 mm 3 m/S 752 mmHg 86%
    23:00 +16°C° 0,7 mm 3 m/S 752 mmHg 92%

    Morgen, 15 August, Mittwoch

    Zeit Temperatur Niederschläge Wind Luftdruck Luftfeuchtigkeit
    00:00 +16°C° 1,3 mm 3 m/S 751 mmHg 94%
    01:00 +16°C° 1,3 mm 3 m/S 751 mmHg 95%
    02:00 +16°C° 1,3 mm 3 m/S 750 mmHg 97%
    03:00 +16°C° 0,8 mm 3 m/S 750 mmHg 97%
    04:00 +16°C° 0,8 mm 3 m/S 749 mmHg 98%
    05:00 +16°C° 0,8 mm 3 m/S 749 mmHg 98%
    06:00 +16°C° 0,8 mm 3 m/S 749 mmHg 98%
    07:00 +17°C° 0,8 mm 3 m/S 749 mmHg 98%
    08:00 +17°C° 0,8 mm 3 m/S 749 mmHg 97%
    09:00 +17°C° 0,4 mm 3 m/S 749 mmHg 97%
    10:00 +17°C° 0,4 mm 3 m/S 749 mmHg 97%
    11:00 +17°C° 0,4 mm 3 m/S 750 mmHg 97%
    12:00 +17°C° 0,4 mm 3 m/S 750 mmHg 96%
    13:00 +17°C° 0,4 mm 3 m/S 750 mmHg 96%
    14:00 +17°C° 0,4 mm 3 m/S 751 mmHg 96%
    15:00 +17°C° 0,1 mm 3 m/S 751 mmHg 95%
    16:00 +17°C° 0,1 mm 2 m/S 751 mmHg 93%
    17:00 +17°C° 0,1 mm 2 m/S 752 mmHg 92%
    18:00 +17°C° 0 mm 2 m/S 752 mmHg 93%
    19:00 +16°C° 0 mm 1 m/S 753 mmHg 95%
    20:00 +16°C° 0 mm 1 m/S 753 mmHg 96%
    21:00 +15°C° 0 mm 1 m/S 754 mmHg 96%
    22:00 +15°C° 0 mm 1 m/S 754 mmHg 97%
    23:00 +14°C° 0 mm 1 m/S 755 mmHg 97%

    übermorgen, 16 August, Donnerstag

    Zeit Temperatur Niederschläge Wind Luftdruck Luftfeuchtigkeit
    00:00 +14°C° 0 mm 1 m/S 755 mmHg 97%
    01:00 +13°C° 0 mm 1 m/S 755 mmHg 97%
    02:00 +13°C° 0 mm 1 m/S 756 mmHg 97%
    03:00 +13°C° 0 mm 1 m/S 756 mmHg 97%
    04:00 +13°C° 0 mm 1 m/S 756 mmHg 97%
    05:00 +12°C° 0 mm 1 m/S 757 mmHg 96%
    06:00 +13°C° 0 mm 0 m/S 757 mmHg 92%
    07:00 +14°C° 0 mm 0 m/S 758 mmHg 88%
    08:00 +16°C° 0 mm 0 m/S 758 mmHg 83%
    09:00 +18°C° 0 mm 0 m/S 758 mmHg 75%
    10:00 +22°C° 0 mm 1 m/S 758 mmHg 66%
    11:00 +23°C° 0 mm 1 m/S 759 mmHg 58%
    12:00 +24°C° 0 mm 1 m/S 759 mmHg 56%
    13:00 +24°C° 0 mm 1 m/S 759 mmHg 54%
    14:00 +25°C° 0 mm 1 m/S 759 mmHg 52%
    15:00 +24°C° 0 mm 1 m/S 759 mmHg 53%
    16:00 +22°C° 0 mm 0 m/S 759 mmHg 55%
    17:00 +22°C° 0 mm 0 m/S 759 mmHg 57%
    18:00 +20°C° 0 mm 0 m/S 759 mmHg 64%
    19:00 +18°C° 0 mm 0 m/S 759 mmHg 71%
    20:00 +16°C° 0 mm 0 m/S 760 mmHg 78%
    21:00 +16°C° 0 mm 1 m/S 760 mmHg 80%
    22:00 +16°C° 0 mm 1 m/S 760 mmHg 83%
    23:00 +15°C° 0 mm 1 m/S 760 mmHg 85%

    17 August, Freitag

    Zeit Temperatur Niederschläge Wind Luftdruck Luftfeuchtigkeit
    00:00 +15°C° 0 mm 1 m/S 760 mmHg 87%
    01:00 +14°C° 0 mm 1 m/S 761 mmHg 88%
    02:00 +14°C° 0 mm 1 m/S 761 mmHg 90%
    03:00 +14°C° 0 mm 1 m/S 761 mmHg 90%
    04:00 +13°C° 0 mm 1 m/S 761 mmHg 91%
    05:00 +13°C° 0 mm 2 m/S 761 mmHg 91%
    06:00 +15°C° 0 mm 2 m/S 761 mmHg 84%
    07:00 +17°C° 0 mm 2 m/S 761 mmHg 77%
    08:00 +19°C° 0 mm 2 m/S 761 mmHg 70%
    09:00 +20°C° 0 mm 2 m/S 761 mmHg 64%
    10:00 +23°C° 0 mm 2 m/S 761 mmHg 59%
    11:00 +24°C° 0 mm 2 m/S 761 mmHg 53%
    12:00 +25°C° 0 mm 2 m/S 761 mmHg 51%
    13:00 +25°C° 0 mm 3 m/S 761 mmHg 50%
    14:00 +26°C° 0 mm 3 m/S 760 mmHg 49%
    15:00 +26°C° 0 mm 2 m/S 760 mmHg 51%
    16:00 +26°C° 0 mm 2 m/S 760 mmHg 54%
    17:00 +25°C° 0 mm 2 m/S 759 mmHg 56%
    18:00 +23°C° 0 mm 2 m/S 759 mmHg 63%
    19:00 +20°C° 0 mm 2 m/S 759 mmHg 70%
    20:00 +18°C° 0 mm 2 m/S 759 mmHg 77%
    21:00 +18°C° 0 mm 2 m/S 759 mmHg 78%
    22:00 +17°C° 0 mm 2 m/S 759 mmHg 79%
    23:00 +16°C° 0 mm 2 m/S 760 mmHg 79%

    18 August, Samstag

    Zeit Temperatur Niederschläge Wind Luftdruck Luftfeuchtigkeit
    00:00 +16°C° 0 mm 2 m/S 759 mmHg 80%
    01:00 +15°C° 0 mm 2 m/S 759 mmHg 81%
    02:00 +15°C° 0 mm 2 m/S 759 mmHg 82%
    03:00 +15°C° 0 mm 2 m/S 759 mmHg 85%
    04:00 +14°C° 0 mm 2 m/S 759 mmHg 87%
    05:00 +14°C° 0 mm 2 m/S 759 mmHg 89%
    06:00 +16°C° 0 mm 3 m/S 759 mmHg 84%
    07:00 +18°C° 0 mm 3 m/S 759 mmHg 80%
    08:00 +20°C° 0 mm 3 m/S 759 mmHg 75%
    09:00 +21°C° 0 mm 3 m/S 759 mmHg 71%
    10:00 +24°C° 0 mm 3 m/S 758 mmHg 66%
    11:00 +26°C° 0 mm 4 m/S 758 mmHg 61%
    12:00 +26°C° 0 mm 4 m/S 758 mmHg 58%
    13:00 +27°C° 0 mm 3 m/S 757 mmHg 56%
    14:00 +28°C° 0 mm 3 m/S 757 mmHg 54%
    15:00 +27°C° 0 mm 3 m/S 757 mmHg 56%
    16:00 +27°C° 0 mm 3 m/S 757 mmHg 58%
    17:00 +27°C° 0 mm 3 m/S 756 mmHg 61%
    18:00 +25°C° 0 mm 3 m/S 756 mmHg 69%
    19:00 +22°C° 0 mm 3 m/S 756 mmHg 78%
    20:00 +20°C° 0 mm 2 m/S 756 mmHg 86%
    21:00 +20°C° 0 mm 2 m/S 756 mmHg 89%
    22:00 +19°C° 0 mm 2 m/S 756 mmHg 92%
    23:00 +18°C° 0 mm 2 m/S 756 mmHg 95%

    19 August, Sonntag

    Zeit Temperatur Niederschläge Wind Luftdruck Luftfeuchtigkeit
    00:00 +18°C° 0 mm 2 m/S 756 mmHg 96%
    01:00 +17°C° 0 mm 2 m/S 756 mmHg 96%
    02:00 +17°C° 0 mm 2 m/S 756 mmHg 97%
    03:00 +16°C° 0 mm 2 m/S 756 mmHg 97%
    04:00 +16°C° 0 mm 2 m/S 756 mmHg 96%
    05:00 +16°C° 0 mm 2 m/S 756 mmHg 96%
    06:00 +17°C° 0 mm 3 m/S 756 mmHg 88%
    07:00 +18°C° 0 mm 3 m/S 755 mmHg 81%
    08:00 +19°C° 0 mm 4 m/S 755 mmHg 73%
    09:00 +20°C° 0 mm 4 m/S 755 mmHg 68%
    10:00 +21°C° 0 mm 4 m/S 755 mmHg 64%
    11:00 +22°C° 0 mm 4 m/S 755 mmHg 59%
    12:00 +22°C° 0,3 mm 4 m/S 755 mmHg 64%
    13:00 +21°C° 0,3 mm 4 m/S 755 mmHg 69%
    14:00 +21°C° 0,3 mm 4 m/S 755 mmHg 74%
    15:00 +20°C° 0,3 mm 4 m/S 755 mmHg 80%
    16:00 +19°C° 0,3 mm 4 m/S 755 mmHg 87%
    17:00 +18°C° 0,3 mm 4 m/S 755 mmHg 93%
    18:00 +18°C° 0 mm 4 m/S 755 mmHg 94%
    19:00 +17°C° 0 mm 3 m/S 755 mmHg 95%
    20:00 +17°C° 0 mm 3 m/S 755 mmHg 96%
    21:00 +17°C° 0 mm 3 m/S 755 mmHg 96%
    22:00 +16°C° 0 mm 3 m/S 755 mmHg 96%
    23:00 +14°C° 0 mm 3 m/S 756 mmHg 96%
    Mehr zeigen